Tracking 32991 objects as of 22-Jan-2026
HD Live streaming from Space Station
objects crossing your sky now

FREGAT DEB

Track FREGAT DEB now!
10-day predictions


NORAD ID: 46406
Int'l Code: 2011-037LK
Perigee: 794.6 km
Apogee: 4,414.0 km
Inclination: 51.6 °
Period: 141.0 minutes
Semi major axis: 8975 km
RCS: Unknown
Launch date: July 18, 2011
Source: Commonwealth of Independent States (former USSR) (CIS)
Launch site: TYURATAM MISSILE AND SPACE COMPLEX (TTMTR)

Note: This is SATELLITE DEBRIS
Your satellite tracking list
Your tracking list is empty




NASA's NSSDC Master Catalog

Two Line Element Set (TLE):
1 46406U 11037LM  26001.99779860  .00000564  00000-0  18619-2 0  9998
2 46406  51.5819 224.7445 2016330 224.0641 118.0882 10.21006765202025
Source of the keplerian elements: AFSPC